Simultaneous Nadir Overpasses (SNOs) Predictions

Prediction of SNOs between METOP-B and NOAA-19 Satellite Orbit:

Table of predicted SNOs for the next 14.0 days since TLE Epoch: 9/12/2015
Index Date (METOP-B) Time (METOP-B) Lat,Lon (METOP-B) SZA (METOP-B ) Date (NOAA-19) Time (NOAA-19) Lat,Lon (NOAA-19) SZA (NOAA-19 ) Distance(km) Time Diff (sec)
1 09/14/2015 06:10:08 75.57, 86.62 71.98 09/14/2015 06:08:59 75.57, 84.47 71.99 59.56 69
2 09/14/2015 07:00:57 -75.23,-107.09 108.36 09/14/2015 06:59:54 -75.23,-107.19 108.35 3.03 63
3 09/14/2015 07:51:38 75.17, 60.07 71.60 09/14/2015 07:50:53 75.18, 60.21 71.61 4.10 45
4 09/14/2015 08:42:20 -75.16,-132.63 108.40 09/14/2015 08:41:55 -75.16,-132.49 108.40 3.94 25
5 09/14/2015 09:33:00 75.15, 34.68 71.61 09/14/2015 09:32:55 75.16, 34.78 71.62 3.00 5
6 09/14/2015 10:23:42 -75.14,-158.02 108.39 09/14/2015 10:23:57 -75.14,-157.92 108.39 2.87 15
7 09/14/2015 11:14:22 75.13, 9.28 71.62 09/14/2015 11:14:57 75.13, 9.34 71.62 1.91 35
8 09/14/2015 12:05:04 -75.12, 176.58 108.38 09/14/2015 12:05:59 -75.12, 176.64 108.39 1.90 55
9 09/14/2015 12:55:45 75.06, -16.26 71.58 09/14/2015 12:56:59 75.11, -16.09 71.62 6.94 74
10 09/24/2015 18:43:17 -75.69, 78.68 103.83 09/24/2015 18:42:09 -75.71, 75.92 103.81 75.68 68
11 09/24/2015 19:34:06 75.25,-115.33 75.74 09/24/2015 19:33:02 75.27,-115.40 75.76 2.37 64
12 09/24/2015 20:24:48 -75.25, 51.98 104.25 09/24/2015 20:24:01 -75.23, 51.98 104.27 2.08 47
13 09/24/2015 21:15:28 75.23,-140.73 75.75 09/24/2015 21:15:04 75.24,-140.83 75.76 3.11 24
14 09/24/2015 22:06:10 -75.23, 26.58 104.25 09/24/2015 22:06:03 -75.20, 26.54 104.27 2.58 7
15 09/24/2015 22:56:50 75.21,-166.13 75.76 09/24/2015 22:57:06 75.22,-166.27 75.76 4.01 16
16 09/24/2015 23:47:33 -75.16, 1.04 104.29 09/24/2015 23:48:05 -75.18, 1.10 104.26 3.21 32
17 09/25/2015 00:38:13 75.15, 168.33 75.72 09/25/2015 00:39:07 75.15, 168.44 75.72 3.09 54
18 09/25/2015 01:28:55 -75.14, -24.36 104.28 09/25/2015 01:30:07 -75.16, -24.34 104.26 2.48 72




NCC Satellite Simultaneous Nadir Overpasses (SNOs) Prediction Service
